星链-6238 (STARLINK-6238 )

导读

STARLINK-6238是美国SpaceX星链星座组网卫星,于2023年5月4日发射升空,属于星链二代卫星,运行在近地轨道。它依托星链系统为全球提供高速低延迟互联网服务,尤其为偏远地区、地面基础设施无法覆盖区域提供网络接入,是SpaceX星链全球卫星互联网组网进程中的重要组成部分,持续推动低轨通信星座的布局完善。

基本信息
目录编号:
56428
目录名称:
STARLINK-6238
国际标识:
2023-061BG
轨道中心:
EARTH
卫星名称:
星链-6238
卫星全名:
星链-6238 (STARLINK-6238 )
卫星状态:
在轨 (已飞行1137 天)
发射日期:
2023-05-04 UTC
国别 :
美国 (US)
星等 :
--
轨道信息
数据来源 国际轨道数据
星历时间: 2026-06-14T13:50:57+0800
14小时前
查看轨道信息
半长轴: 6861.126km
偏心率: 0.0001779
轨道倾角: 43.002°
近地点辐角 280.260°
升交点赤经 354.503°
平近点角 79.805°
近地点: 481.768km
远地点: 484.21km
周期: 94.266分钟
每日圈数: 15.276001
详细信息
固有亮度:
5
最大亮度:
2.5
卫星平台:
Starlink v1.5
覆盖范围:
全球
运营商:
太空探索技术公司
运营商所在国:
美国
制造商(研发单位):
太空探索技术公司
制造商所在国:
美国
使用方式:
暂无
卫星简介
星链(Starlink)计划是由太空探索技术公司(SpaceX)提出的一个巨型低轨卫星互联网星座项目,计划在2019年至2024年间在太空搭建由约1.2万颗卫星组成的“星链”网络,其中1584颗将部署在地球上空550千米处的近地轨道,并从2020年开始工作。该卫星仍在工作。
2D轨道图
3D轨道图
轨道高度分析图
轨道倾角分析图
轨道综合分析图
查看轨道综合分析图